[[{"header":{"parameterUnit":"m.s-1","parameterCategory":1,"la1":30.2991,"la2":30.254,"lo1":-89.0895,"lo2":-89.0444,"dy":0.0017,"dx":0.0017,"nx":28,"ny":28,"refTime":"2023-10-10T21:00:00:Z","depth":0,"parameterNumber":2,"parameterNumberName":"U-component_of_WINDS"},"data":[0,0,0,0,0,0,0,0,0,0,0,0,0,0,0,0,0,0,0,0,0,0,0,0,0,0,0,0,0,0,0,0,0,0,0,0,0,0,0,0,0,0,0,0,0,0,0,0,0,0,0,0,0,0,0,0,0,0,-0.0564,-0.0564,0,-0.0551,-0.0551,-0.0551,-0.054,-0.054,-0.054,-0.054,-0.0528,-0.0528,-0.0528,0,0,0,0,0,0,0,0,0,0,0,0,0,-0.0579,-0.0578,-0.0564,-0.0564,-0.0564,-0.0551,-0.0551,-0.0551,-0.054,-0.054,-0.054,-0.054,-0.0528,-0.0528,-0.0528,0,0,0,0,0,0,0,0,0,0,0,0,0,-0.057,-0.0578,-0.0564,-0.0557,-0.0556,-0.0551,-0.0551,-0.0551,-0.054,-0.054,-0.054,-0.054,-0.0528,-0.0528,-0.0528,-0.053,0,0,-0.0527,-0.0527,0,0,0,0,0,0,0,0,-0.057,-0.0569,-0.0558,-0.0557,-0.0556,-0.0547,-0.0552,-0.0544,-0.054,-0.0546,-0.054,-0.054,-0.0535,-0.0534,-0.0532,-0.0529,-0.0529,-0.0527,-0.0527,-0.0527,-0.0527,0,0,0,0,0,0,0,-0.0571,-0.057,-0.0559,-0.0558,-0.0557,-0.0554,-0.0553,-0.0551,-0.0542,-0.0546,-0.0545,-0.0544,-0.0534,-0.0532,-0.0532,-0.0529,-0.0527,-0.0527,-0.0526,-0.0526,-0.0525,-0.0526,0,0,0,0,0,0,-0.0573,-0.057,-0.0559,-0.0559,-0.0563,-0.0554,-0.0552,-0.055,-0.0542,-0.054,-0.0544,-0.0543,-0.0533,-0.0532,-0.0531,-0.0532,-0.0527,-0.0526,-0.0526,-0.0525,-0.0525,-0.0526,0,0,0,0,0,0,-0.0573,-0.0572,-0.056,-0.0564,-0.0563,-0.0554,-0.0552,-0.055,-0.0548,-0.054,-0.0539,-0.0543,-0.0533,-0.0532,-0.053,-0.0532,-0.0526,-0.0526,-0.0525,-0.0525,-0.0525,-0.0534,0,0,0,0,0,0,-0.0574,-0.0572,-0.0573,-0.0564,-0.0562,-0.0559,-0.0552,-0.055,-0.0548,-0.0547,-0.0539,-0.0538,-0.0533,-0.053,-0.053,-0.0531,-0.0526,-0.0525,-0.0525,-0.0525,-0.0534,-0.0535,-0.0536,0,0,0,0,0,-0.0574,-0.0576,-0.0573,-0.0572,-0.0563,-0.0559,-0.0558,-0.0551,-0.0548,-0.0548,-0.0543,-0.0538,-0.0532,-0.053,-0.0529,-0.0531,-0.0525,-0.0525,-0.0525,-0.0534,-0.0535,-0.0536,0,0,0,0,0,0,-0.0586,-0.0575,-0.0571,-0.0571,-0.0566,-0.0557,-0.0558,-0.0553,-0.0549,-0.0548,-0.054,-0.0539,-0.0538,-0.0534,-0.0533,-0.0532,-0.0527,-0.0528,-0.0534,-0.0535,-0.0536,-0.0537,-0.0525,0,0,0,0,0,-0.0588,-0.0585,-0.0576,-0.0577,-0.0574,-0.0566,-0.0564,-0.0559,-0.0554,-0.0552,-0.0547,-0.0542,-0.0539,-0.0537,-0.0533,-0.0533,-0.0531,-0.0534,-0.0535,-0.0535,-0.0536,-0.0535,-0.0535,-0.0527,-0.0527,-0.0527,0,0,-0.0593,-0.0587,-0.0586,-0.0579,-0.0574,-0.0572,-0.0565,-0.0562,-0.056,-0.0552,-0.0549,-0.0545,-0.0539,-0.0538,-0.0538,-0.0535,-0.0538,-0.0536,-0.0537,-0.0536,-0.0535,-0.0536,-0.0537,-0.0527,-0.0527,-0.0527,0,0,-0.0601,-0.0596,-0.0595,-0.0591,-0.0584,-0.0578,-0.0578,-0.057,-0.0567,-0.0564,-0.0557,-0.0555,-0.055,-0.0545,-0.0542,-0.0547,-0.0543,-0.0546,-0.0551,-0.055,-0.0551,-0.0552,-0.0553,-0.0553,-0.0547,-0.0547,-0.0547,0,-0.0608,-0.0604,-0.0596,-0.0593,-0.059,-0.0582,-0.0581,-0.0577,-0.0569,-0.0567,-0.0565,-0.0557,-0.0553,-0.055,-0.0551,-0.0549,-0.0548,-0.0547,-0.0551,-0.0552,-0.0552,-0.0553,-0.0554,-0.0547,-0.0547,-0.0547,-0.0547,0,-0.0613,-0.0609,-0.061,-0.0602,-0.0599,-0.0597,-0.0589,-0.0587,-0.0582,-0.0577,-0.0574,-0.0568,-0.0562,-0.0562,-0.0557,-0.0558,-0.0557,-0.0553,-0.0549,-0.0554,-0.0555,-0.0555,-0.0548,-0.0548,-0.0548,-0.0547,0,0,-0.0628,-0.0615,-0.0615,-0.0611,-0.0602,-0.06,-0.0597,-0.0592,-0.059,-0.0585,-0.0582,-0.0577,-0.0573,-0.057,-0.0565,-0.0564,-0.0568,-0.056,-0.056,-0.0562,-0.0567,-0.057,-0.057,-0.0564,-0.0564,-0.0564,-0.0568,0,-0.0634,-0.0629,-0.0621,-0.0619,-0.0616,-0.0607,-0.0605,-0.0599,-0.0594,-0.0591,-0.0585,-0.0581,-0.0577,-0.0575,-0.0573,-0.0567,-0.0569,-0.0567,-0.0562,-0.0562,-0.0563,-0.0571,-0.0574,-0.0577,-0.0568,-0.0568,-0.0568,0,-0.064,-0.0635,-0.0632,-0.0622,-0.0621,-0.0619,-0.0613,-0.0609,-0.0602,-0.0599,-0.0594,-0.0589,-0.0586,-0.0582,-0.0577,-0.0576,-0.0574,-0.057,-0.057,-0.0569,-0.0565,-0.057,-0.0578,-0.0579,-0.0568,-0.0568,-0.0568,0,-0.0651,-0.0643,-0.064,-0.0637,-0.0626,-0.0624,-0.062,-0.0613,-0.061,-0.0604,-0.0602,-0.0596,-0.0593,-0.0589,-0.0582,-0.058,-0.0578,-0.0573,-0.0574,-0.0574,-0.0574,-0.0574,-0.0582,-0.0573,-0.0573,-0.0573,-0.0573,0,-0.0658,-0.0657,-0.0644,-0.0642,-0.064,-0.0631,-0.0629,-0.0624,-0.0618,-0.0614,-0.0607,-0.0604,-0.0595,-0.0591,-0.0585,-0.0582,-0.0581,-0.0577,-0.0576,-0.0578,-0.0578,-0.0576,-0.0576,-0.0573,-0.0573,-0.0573,-0.0573,0,-0.067,-0.0662,-0.0657,-0.0647,-0.0644,-0.0643,-0.0634,-0.0632,-0.0626,-0.0622,-0.062,-0.0611,-0.0606,-0.0598,-0.0591,-0.0587,-0.0584,-0.0582,-0.0587,-0.0586,-0.0587,-0.0587,-0.0593,-0.0593,-0.0585,-0.0585,-0.0585,0,-0.0675,-0.0673,-0.0662,-0.0659,-0.0655,-0.065,-0.0647,-0.0638,-0.0634,-0.0626,-0.0624,-0.0618,-0.0613,-0.0605,-0.0598,-0.0592,-0.0589,-0.0592,-0.0589,-0.059,-0.0589,-0.0589,-0.0588,-0.0593,-0.0593,-0.0593,-0.0593,0,-0.0685,-0.068,-0.0675,-0.0668,-0.0664,-0.0658,-0.0652,-0.065,-0.064,-0.0636,-0.063,-0.0626,-0.0618,-0.0612,-0.0605,-0.0601,-0.0595,-0.0594,-0.0594,-0.0596,-0.0598,-0.0597,-0.0588,-0.0594,-0.0594,-0.0594,-0.0594,-0.0594,-0.0693,-0.069,-0.0682,-0.0676,-0.0671,-0.0665,-0.0662,-0.0655,-0.065,-0.0642,-0.0637,-0.0632,-0.0624,-0.0614,-0.061,-0.0605,-0.0603,-0.0603,-0.0603,-0.0603,-0.0603,-0.0599,-0.0604,-0.0604,-0.0604,-0.0604,-0.0604,0,-0.0701,-0.0695,-0.069,-0.0681,-0.0677,-0.0671,-0.0664,-0.066,-0.0655,-0.0649,-0.0643,-0.0636,-0.063,-0.0622,-0.0615,-0.0613,-0.0611,-0.0612,-0.0612,-0.0611,-0.0606,-0.0606,-0.0614,-0.0614,-0.0614,-0.0614,-0.0614,-0.0614,-0.0705,-0.0701,-0.0696,-0.0688,-0.0682,-0.0676,-0.0673,-0.0667,-0.0661,-0.0654,-0.0648,-0.0643,-0.0635,-0.0628,-0.0622,-0.062,-0.0618,-0.062,-0.0617,-0.0612,-0.0611,-0.061,-0.0611,-0.0619,-0.0619,-0.0622,-0.0622,-0.0622]},{"header":{"parameterUnit":"m.s-1","parameterCategory":1,"la1":30.2991,"la2":30.254,"lo1":-89.0895,"lo2":-89.0444,"dy":0.0017,"dx":0.0017,"nx":28,"ny":28,"refTime":"2023-10-10T21:00:00:Z","depth":0,"parameterNumber":3,"parameterNumberName":"V-component_of_WINDS"},"data":[0,0,0,0,0,0,0,0,0,0,0,0,0,0,0,0,0,0,0,0,0,0,0,0,0,0,0,0,0,0,0,0,0,0,0,0,0,0,0,0,0,0,0,0,0,0,0,0,0,0,0,0,0,0,0,0,0,0,-0.1101,-0.1101,0,-0.1087,-0.1086,-0.1086,-0.105,-0.1049,-0.1048,-0.1047,-0.1034,-0.1034,-0.1034,0,0,0,0,0,0,0,0,0,0,0,0,0,-0.1097,-0.1098,-0.1101,-0.1101,-0.1101,-0.1087,-0.1086,-0.1086,-0.105,-0.1049,-0.1048,-0.1047,-0.1033,-0.1034,-0.1034,0,0,0,0,0,0,0,0,0,0,0,0,0,-0.1093,-0.1098,-0.1101,-0.1081,-0.1079,-0.1087,-0.1086,-0.1086,-0.105,-0.1049,-0.1048,-0.1047,-0.1033,-0.1034,-0.1034,-0.1061,0,0,-0.1036,-0.1036,0,0,0,0,0,0,0,0,-0.1093,-0.1093,-0.1084,-0.1082,-0.108,-0.1069,-0.108,-0.1078,-0.105,-0.1061,-0.1047,-0.1046,-0.1046,-0.1046,-0.1046,-0.106,-0.106,-0.1036,-0.1036,-0.1037,-0.1037,0,0,0,0,0,0,0,-0.1093,-0.1093,-0.1095,-0.1084,-0.1081,-0.1072,-0.107,-0.1079,-0.106,-0.106,-0.1057,-0.1056,-0.1045,-0.1045,-0.1045,-0.106,-0.1036,-0.1037,-0.1037,-0.1037,-0.1095,-0.1096,0,0,0,0,0,0,-0.1096,-0.1094,-0.1096,-0.1095,-0.1084,-0.1073,-0.1071,-0.1073,-0.106,-0.1057,-0.1057,-0.1054,-0.1045,-0.1044,-0.1044,-0.1074,-0.1037,-0.1037,-0.1037,-0.1094,-0.1095,-0.1097,0,0,0,0,0,0,-0.1097,-0.1097,-0.1096,-0.1093,-0.1093,-0.1075,-0.1078,-0.1074,-0.1074,-0.1058,-0.1054,-0.1061,-0.1044,-0.1044,-0.1057,-0.1073,-0.1037,-0.1038,-0.1093,-0.1094,-0.1096,-0.1135,0,0,0,0,0,0,-0.1097,-0.1097,-0.1107,-0.1094,-0.1093,-0.1109,-0.1079,-0.1074,-0.1075,-0.1071,-0.106,-0.1057,-0.1043,-0.1056,-0.1058,-0.1073,-0.1038,-0.1091,-0.1093,-0.1095,-0.1132,-0.1138,-0.1143,0,0,0,0,0,-0.1097,-0.1119,-0.1108,-0.1108,-0.1105,-0.111,-0.111,-0.1092,-0.1076,-0.1086,-0.1076,-0.1058,-0.1071,-0.1058,-0.1059,-0.1075,-0.109,-0.1093,-0.1095,-0.113,-0.1137,-0.1143,0,0,0,0,0,0,-0.1135,-0.1117,-0.1104,-0.1123,-0.1118,-0.1104,-0.1116,-0.11,-0.11,-0.1097,-0.1075,-0.1073,-0.109,-0.1084,-0.1069,-0.11,-0.1078,-0.1081,-0.1103,-0.111,-0.1115,-0.1116,-0.1039,0,0,0,0,0,-0.1146,-0.1151,-0.1135,-0.1153,-0.1151,-0.1134,-0.1136,-0.1123,-0.1117,-0.1115,-0.1106,-0.1101,-0.1104,-0.1107,-0.1109,-0.1131,-0.1128,-0.1143,-0.1148,-0.1153,-0.1155,-0.1166,-0.1173,-0.1106,-0.1106,-0.1106,0,0,-0.1168,-0.1158,-0.1163,-0.1161,-0.1155,-0.1162,-0.1133,-0.1141,-0.1145,-0.1116,-0.1128,-0.1121,-0.1115,-0.1132,-0.114,-0.1128,-0.1173,-0.1156,-0.116,-0.116,-0.117,-0.1176,-0.1182,-0.1108,-0.1107,-0.1107,0,0,-0.1211,-0.1205,-0.1219,-0.1214,-0.1206,-0.1195,-0.1198,-0.1186,-0.118,-0.1191,-0.117,-0.1175,-0.1181,-0.1177,-0.1176,-0.1217,-0.12,-0.1218,-0.1246,-0.1257,-0.1262,-0.1267,-0.1281,-0.1287,-0.1221,-0.1221,-0.1221,0,-0.124,-0.1248,-0.1228,-0.1237,-0.1237,-0.121,-0.1224,-0.1221,-0.1214,-0.1215,-0.1202,-0.1208,-0.1202,-0.1218,-0.1228,-0.1228,-0.1231,-0.1219,-0.1263,-0.1268,-0.1271,-0.1285,-0.1291,-0.1224,-0.1223,-0.1223,-0.1223,0,-0.1283,-0.1289,-0.1302,-0.1295,-0.1296,-0.1308,-0.129,-0.1293,-0.128,-0.127,-0.1282,-0.1273,-0.1273,-0.1276,-0.1263,-0.129,-0.1283,-0.1267,-0.1244,-0.128,-0.1293,-0.1298,-0.1227,-0.1226,-0.1225,-0.1225,0,0,-0.1351,-0.1333,-0.1338,-0.1334,-0.1324,-0.1328,-0.1339,-0.1338,-0.1341,-0.1337,-0.1345,-0.1351,-0.1336,-0.1334,-0.1321,-0.133,-0.1363,-0.1313,-0.1312,-0.1322,-0.1392,-0.1404,-0.1411,-0.1352,-0.1353,-0.1354,-0.1393,0,-0.1391,-0.1408,-0.139,-0.141,-0.1415,-0.139,-0.1399,-0.1394,-0.1384,-0.1387,-0.1377,-0.1381,-0.1361,-0.136,-0.1368,-0.1358,-0.1377,-0.1355,-0.136,-0.136,-0.1362,-0.1417,-0.143,-0.1467,-0.1397,-0.1398,-0.1399,0,-0.1441,-0.1439,-0.146,-0.1447,-0.1448,-0.1457,-0.1454,-0.1458,-0.1451,-0.1443,-0.1442,-0.1425,-0.1435,-0.1412,-0.1425,-0.141,-0.1411,-0.1406,-0.1407,-0.1406,-0.1382,-0.1418,-0.1479,-0.1484,-0.1406,-0.1406,-0.1405,0,-0.1488,-0.149,-0.1503,-0.1501,-0.1487,-0.1493,-0.1487,-0.1479,-0.148,-0.1478,-0.1478,-0.1477,-0.1477,-0.1477,-0.1461,-0.1446,-0.1475,-0.1451,-0.1469,-0.1469,-0.1476,-0.1476,-0.1538,-0.1477,-0.1477,-0.1477,-0.1477,0,-0.1535,-0.1549,-0.1524,-0.1531,-0.1546,-0.1525,-0.154,-0.1532,-0.1525,-0.153,-0.1509,-0.1515,-0.1493,-0.1496,-0.1484,-0.1496,-0.1496,-0.149,-0.1487,-0.1492,-0.1493,-0.1492,-0.1489,-0.1479,-0.1478,-0.1478,-0.1478,0,-0.159,-0.1574,-0.1586,-0.1571,-0.1567,-0.1579,-0.1566,-0.1573,-0.1561,-0.1569,-0.157,-0.1552,-0.1555,-0.1539,-0.1539,-0.1531,-0.1549,-0.1541,-0.1551,-0.1549,-0.1567,-0.1566,-0.1631,-0.1638,-0.1574,-0.1574,-0.1575,0,-0.1621,-0.1631,-0.1617,-0.1619,-0.1614,-0.1618,-0.1618,-0.1598,-0.1599,-0.1592,-0.1599,-0.16,-0.16,-0.1606,-0.1594,-0.1594,-0.1586,-0.1608,-0.1586,-0.1591,-0.1586,-0.1585,-0.1586,-0.1613,-0.1614,-0.1615,-0.1615,0,-0.1678,-0.1669,-0.167,-0.1668,-0.1669,-0.1666,-0.1663,-0.1666,-0.1644,-0.1647,-0.1649,-0.1649,-0.1649,-0.165,-0.1647,-0.1642,-0.1625,-0.1622,-0.1626,-0.1632,-0.1637,-0.1634,-0.1564,-0.1621,-0.1621,-0.162,-0.162,-0.162,-0.1721,-0.1729,-0.172,-0.1721,-0.1716,-0.1713,-0.1718,-0.1708,-0.1709,-0.1707,-0.1696,-0.17,-0.1693,-0.1687,-0.1683,-0.1687,-0.1676,-0.1682,-0.1683,-0.1685,-0.1688,-0.1637,-0.1686,-0.1686,-0.1686,-0.1686,-0.1686,0,-0.1777,-0.177,-0.1771,-0.1766,-0.1768,-0.1751,-0.1746,-0.1748,-0.1753,-0.1747,-0.1747,-0.175,-0.1751,-0.1738,-0.1737,-0.1743,-0.1735,-0.1743,-0.1742,-0.1741,-0.1698,-0.1694,-0.1749,-0.1749,-0.1749,-0.1749,-0.1749,-0.1749,-0.1806,-0.1817,-0.1807,-0.1816,-0.1808,-0.1813,-0.1811,-0.1808,-0.1803,-0.1807,-0.1807,-0.1799,-0.1791,-0.1789,-0.1789,-0.1785,-0.1786,-0.1797,-0.1791,-0.1751,-0.1744,-0.1739,-0.1735,-0.1797,-0.1798,-0.1834,-0.1834,-0.1834]}]]